IK1MHM-5 Weather Reports


time (UTC)temp
C
wind
direction
speed
KPH
gust
KPH
rain 1hr
cm
rain 24hr
cm
rain mn
cm
humidity
%
barometer
mb
20260507224609 -17 205 3.2 3.2 0.00 0.00 0.00 88 1027.2
20260507224109 -17 201 1.6 3.2 0.00 0.00 0.00 88 1027.2
20260507223608 -17 204 3.2 3.2 0.00 0.00 0.00 86 1027.2
20260507223109 -17 224 3.2 4.8 0.00 0.00 0.00 85 1027.2
20260507222609 -17 191 1.6 3.2 0.00 0.00 0.00 88 1027.4
20260507222110 -17 167 1.6 3.2 0.00 0.00 0.00 85 1027.2
20260507221608 -17 191 1.6 3.2 0.00 0.00 0.00 83 1027.0
20260507221108 -17 245 3.2 4.8 0.00 0.00 0.00 82 1027.0
20260507220608 -17 232 4.8 6.4 0.00 0.00 0.00 83 1027.0
20260507220109 -17 232 3.2 6.4 0.00 0.00 0.00 84 1027.0
20260507215609 -17 194 0.0 1.6 0.00 0.00 0.10 85 1027.2
20260507215109 -17 205 0.0 1.6 0.00 0.00 0.10 85 1027.2
20260507214609 -17 196 0.0 1.6 0.00 0.00 0.10 87 1027.0
20260507214108 -17 204 0.0 1.6 0.00 0.00 0.10 87 1027.2
20260507213610 -17 189 1.6 3.2 0.00 0.00 0.10 88 1027.2
20260507212608 -17 195 0.0 1.6 0.00 0.00 0.10 89 1027.0
20260507212109 -17 210 3.2 4.8 0.00 0.00 0.10 88 1027.0
20260507211608 -17 223 1.6 3.2 0.00 0.00 0.10 89 1027.0
20260507211110 -17 217 3.2 4.8 0.00 0.00 0.10 88 1027.2
20260507210609 -17 223 1.6 6.4 0.00 0.00 0.10 88 1027.0
20260507210108 -17 206 3.2 4.8 0.00 0.00 0.10 88 1027.0
20260507205109 -17 203 0.0 1.6 0.00 0.00 0.10 89 1027.0
20260507204609 -17 172 0.0 1.6 0.00 0.00 0.10 90 1027.0
20260507204109 -17 202 0.0 1.6 0.00 0.00 0.10 90 1027.2
20260507203108 -17 216 0.0 1.6 0.00 0.00 0.10 91 1027.0
20260507202608 -17 196 0.0 1.6 0.00 0.00 0.10 91 1027.0
20260507202109 -17 195 0.0 1.6 0.00 0.00 0.10 93 1027.2
20260507201608 -17 199 1.6 1.6 0.00 0.00 0.10 92 1027.0
20260507201109 -17 246 1.6 3.2 0.00 0.00 0.10 92 1026.9
20260507200609 -17 193 0.0 1.6 0.00 0.00 0.10 92 1027.0
20260507200108 -17 228 0.0 1.6 0.00 0.00 0.10 91 1026.9
20260507195608 -17 218 0.0 1.6 0.00 0.00 0.10 91 1026.7
20260507195108 -17 198 1.6 3.2 0.00 0.00 0.10 91 1026.7
20260507194609 -17 200 1.6 3.2 0.00 0.00 0.10 90 1026.9
20260507194109 -17 192 1.6 1.6 0.00 0.00 0.10 89 1026.9
20260507193608 -17 193 0.0 1.6 0.00 0.00 0.10 89 1026.7
20260507193108 -17 207 0.0 1.6 0.00 0.00 0.10 90 1026.7
20260507192609 -17 192 3.2 3.2 0.00 0.00 0.10 89 1026.7
20260507192109 -17 201 0.0 1.6 0.00 0.00 0.10 88 1026.9
20260507191610 -17 197 0.0 0.0 0.00 0.00 0.10 88 1026.9
20260507191108 -17 196 0.0 0.0 0.00 0.00 0.10 88 1026.9
20260507190610 -17 198 0.0 0.0 0.00 0.00 0.10 88 1026.9
20260507190109 -17 198 0.0 0.0 0.00 0.00 0.10 88 1026.7
20260507185609 -17 199 0.0 0.0 0.00 0.00 0.10 90 1026.5
20260507185109 -17 191 0.0 0.0 0.00 0.00 0.10 89 1026.9
20260507184609 -17 193 0.0 0.0 0.00 0.00 0.10 89 1026.7
20260507184108 -17 192 0.0 0.0 0.00 0.00 0.10 89 1026.9
20260507183609 -17 195 0.0 0.0 0.00 0.00 0.10 89 1026.7
20260507183109 -17 196 0.0 0.0 0.00 0.00 0.10 89 1026.7
20260507182609 -17 196 0.0 0.0 0.00 0.00 0.10 89 1026.7
20260507182109 -17 194 0.0 0.0 0.00 0.00 0.10 88 1027.0
20260507181609 -17 194 0.0 0.0 0.00 0.00 0.10 88 1026.7
20260507181109 -17 193 0.0 0.0 0.00 0.00 0.10 87 1026.9
20260507180609 -17 200 0.0 1.6 0.00 0.00 0.10 86 1026.9
20260507180109 -17 197 0.0 0.0 0.00 0.00 0.10 85 1027.0
20260507175610 -17 195 0.0 0.0 0.00 0.00 0.10 84 1026.7
20260507175109 -17 189 0.0 0.0 0.00 0.00 0.10 83 1026.9
20260507174609 -17 187 0.0 0.0 0.00 0.00 0.10 83 1027.0
20260507173609 -17 189 0.0 0.0 0.00 0.00 0.10 79 1026.9
20260507173108 -17 187 0.0 0.0 0.00 0.00 0.10 76 1026.9
20260507172109 -17 184 0.0 0.0 0.00 0.00 0.10 75 1026.9
20260507171609 -17 191 0.0 0.0 0.00 0.00 0.10 73 1026.7
20260507171109 -17 200 0.0 0.0 0.00 0.00 0.10 72 1026.7
20260507170609 -17 187 0.0 1.6 0.00 0.00 0.10 69 1026.7
20260507165608 -17 196 0.0 1.6 0.00 0.00 0.10 68 1026.7
20260507165153 -17 196 0.0 1.6 0.00 0.00 0.10 69 1026.7
20260507164608 -17 189 0.0 0.0 0.00 0.00 0.10 68 1026.5
20260507164110 -17 190 0.0 1.6 0.00 0.00 0.10 66 1026.7
20260507163609 -17 187 0.0 0.0 0.00 0.00 0.10 68 1026.5
20260507163111 -17 186 0.0 0.0 0.00 0.00 0.10 67 1026.7
20260507162609 -17 187 0.0 0.0 0.00 0.00 0.10 67 1026.7
20260507162108 -17 188 0.0 0.0 0.00 0.00 0.10 67 1026.5
20260507161608 -17 172 0.0 1.6 0.00 0.00 0.10 68 1026.7
20260507161108 -17 191 0.0 1.6 0.00 0.00 0.10 69 1026.5
20260507160609 -17 186 0.0 0.0 0.00 0.00 0.10 70 1026.7
20260507160109 -17 189 0.0 1.6 0.00 0.00 0.10 71 1027.0
20260507155609 -17 181 0.0 1.6 0.00 0.00 0.10 78 1027.0
20260507155109 -17 186 0.0 0.0 0.00 0.00 0.10 78 1026.7
20260507154609 -17 195 0.0 1.6 0.00 0.00 0.10 74 1026.9
20260507154109 -17 164 0.0 0.0 0.00 0.00 0.10 73 1027.0
20260507153609 -17 157 0.0 1.6 0.00 0.00 0.10 70 1027.0
20260507153108 -17 187 0.0 0.0 0.00 0.00 0.10 73 1027.0
20260507152613 -17 197 4.8 9.7 0.00 0.00 0.10 67 1026.7
20260507152108 -17 186 0.0 1.6 0.00 0.00 0.10 69 1026.9
20260507151609 -17 172 0.0 1.6 0.00 0.00 0.10 71 1026.9
20260507151108 -17 191 0.0 1.6 0.00 0.00 0.10 71 1026.9
20260507150609 -17 216 3.2 4.8 0.00 0.00 0.10 65 1026.7
20260507150108 -17 187 0.0 1.6 0.00 0.00 0.10 65 1026.9
20260507145609 -17 50 0.0 0.0 0.00 0.00 0.10 69 1026.7
20260507145109 -17 211 0.0 1.6 0.00 0.00 0.10 67 1026.9
20260507144608 -17 178 0.0 1.6 0.00 0.00 0.10 65 1026.9
20260507144109 -17 197 0.0 0.0 0.00 0.00 0.10 71 1026.9
20260507143609 -17 188 0.0 1.6 0.00 0.00 0.10 67 1027.0
20260507143109 -17 220 0.0 1.6 0.00 0.00 0.10 65 1026.9
20260507142609 -17 138 0.0 3.2 0.00 0.00 0.10 62 1027.0
20260507142109 -17 213 1.6 3.2 0.00 0.00 0.10 65 1027.0
20260507141608 -17 131 3.2 4.8 0.00 0.00 0.10 64 1027.2
20260507141108 -17 185 0.0 1.6 0.00 0.00 0.10 66 1027.0
20260507140609 -17 203 1.6 6.4 0.00 0.00 0.10 69 1027.2
20260507140108 -17 125 3.2 4.8 0.00 0.00 0.10 69 1027.2
20260507135609 -17 202 0.0 1.6 0.00 0.00 0.10 77 1027.4
20260507135109 -17 334 0.0 3.2 0.00 0.00 0.10 76 1027.2
20260507134609 -17 179 1.6 3.2 0.00 0.00 0.10 74 1027.2
20260507134109 -17 192 1.6 3.2 0.00 0.00 0.10 72 1027.4
20260507133609 -17 202 0.0 3.2 0.00 0.00 0.10 69 1027.2
20260507133108 -17 195 0.0 1.6 0.00 0.00 0.10 72 1027.2
20260507132610 -17 141 1.6 3.2 0.00 0.00 0.10 73 1027.2
20260507132109 -17 212 1.6 3.2 0.00 0.00 0.10 76 1027.2
20260507131609 -17 212 0.0 1.6 0.00 0.00 0.10 74 1027.2
20260507131108 -17 193 0.0 3.2 0.00 0.00 0.10 74 1027.2
20260507130609 -17 191 1.6 3.2 0.00 0.00 0.10 74 1027.4
20260507130108 -17 185 1.6 3.2 0.00 0.00 0.10 76 1027.4
20260507125608 -17 169 3.2 4.8 0.00 0.00 0.10 78 1027.2
20260507125108 -17 206 0.0 3.2 0.00 0.00 0.10 76 1027.2
20260507124608 -17 202 0.0 3.2 0.00 0.00 0.10 75 1027.0
20260507124108 -17 243 3.2 6.4 0.00 0.00 0.10 69 1027.2
20260507123609 -17 240 1.6 3.2 0.00 0.00 0.10 71 1027.0
20260507123109 -17 157 3.2 3.2 0.00 0.00 0.10 64 1027.2
20260507122608 -17 118 1.6 3.2 0.00 0.00 0.10 65 1027.0
20260507122108 -17 123 3.2 6.4 0.00 0.00 0.10 69 1027.0
20260507121608 -17 198 3.2 6.4 0.00 0.00 0.10 67 1027.2
20260507121110 -17 156 0.0 1.6 0.00 0.00 0.10 71 1027.0
20260507120608 -17 228 1.6 4.8 0.00 0.00 0.10 71 1027.0
20260507120109 -17 62 1.6 1.6 0.00 0.00 0.10 71 1027.0
20260507115608 -17 203 1.6 1.6 0.00 0.00 0.10 71 1027.2
20260507115108 -17 186 0.0 3.2 0.00 0.00 0.10 73 1027.2
20260507114609 -17 191 0.0 1.6 0.00 0.00 0.10 70 1027.2
20260507114108 -17 211 8.0 9.7 0.00 0.00 0.10 71 1027.2
20260507113609 -17 296 6.4 8.0 0.00 0.00 0.10 68 1027.5
20260507113109 -17 277 6.4 9.7 0.00 0.00 0.10 69 1027.4
20260507112609 -17 269 4.8 8.0 0.00 0.00 0.10 69 1027.4
20260507112108 -17 144 1.6 3.2 0.00 0.00 0.10 71 1027.2
20260507111608 -17 336 1.6 3.2 0.00 0.00 0.10 68 1027.5
20260507111108 -17 174 1.6 3.2 0.00 0.00 0.10 68 1027.2
20260507110608 -17 199 0.0 1.6 0.00 0.00 0.10 70 1027.2
20260507110109 -17 354 1.6 3.2 0.00 0.00 0.10 68 1027.2
20260507105608 -17 307 3.2 4.8 0.00 0.00 0.10 68 1027.2
20260507105109 -17 204 1.6 3.2 0.00 0.00 0.10 74 1027.2
20260507104609 -17 199 1.6 3.2 0.00 0.00 0.10 71 1027.2
20260507104109 -17 198 0.0 1.6 0.00 0.00 0.10 71 1027.4
20260507103609 -17 171 3.2 8.0 0.00 0.00 0.10 70 1027.4
20260507103110 -17 161 3.2 4.8 0.00 0.00 0.10 71 1027.4
20260507102609 -17 178 0.0 1.6 0.00 0.00 0.10 68 1027.2
20260507102108 -17 207 1.6 3.2 0.00 0.00 0.10 72 1027.4
20260507101608 -17 33 1.6 4.8 0.00 0.00 0.10 72 1027.4
20260507101109 -17 76 1.6 3.2 0.00 0.00 0.10 74 1027.2
20260507100609 -17 359 3.2 4.8 0.00 0.00 0.10 74 1027.4
20260507100109 -17 159 0.0 3.2 0.00 0.00 0.10 72 1027.2
20260507095608 -17 176 3.2 4.8 0.00 0.00 0.10 70 1027.2
20260507095109 -17 150 3.2 4.8 0.00 0.00 0.10 67 1027.4
20260507094609 -17 204 0.0 1.6 0.00 0.00 0.10 72 1027.2
20260507094109 -17 229 0.0 1.6 0.00 0.00 0.10 76 1027.2
20260507093609 -17 246 4.8 6.4 0.00 0.00 0.10 71 1027.5
20260507093109 -17 165 1.6 3.2 0.00 0.00 0.10 70 1027.2
20260507092609 -17 206 1.6 3.2 0.00 0.00 0.10 69 1027.2
20260507092108 -17 240 0.0 3.2 0.00 0.00 0.10 71 1027.0
20260507091608 -17 174 1.6 3.2 0.00 0.00 0.10 71 1027.4
20260507091109 -17 202 0.0 1.6 0.00 0.00 0.10 73 1027.2
20260507090609 -17 174 0.0 1.6 0.00 0.00 0.10 75 1027.4
20260507090108 -17 200 0.0 1.6 0.00 0.00 0.10 76 1027.2
20260507085609 -17 210 3.2 4.8 0.00 0.00 0.10 76 1027.2
20260507085109 -17 202 6.4 9.7 0.00 0.00 0.10 76 1027.2
20260507084609 -17 191 1.6 3.2 0.00 0.00 0.10 77 1027.0
20260507084108 -17 66 1.6 3.2 0.00 0.00 0.10 76 1027.0
20260507083608 -17 115 3.2 8.0 0.00 0.00 0.10 76 1026.7
20260507083108 -17 209 0.0 1.6 0.00 0.00 0.10 77 1026.9
20260507082609 -17 262 1.6 4.8 0.00 0.00 0.10 78 1026.9
20260507082109 -17 206 0.0 1.6 0.00 0.00 0.10 79 1026.7
20260507081608 -17 199 1.6 3.2 0.00 0.00 0.10 81 1026.9
20260507081108 -17 202 0.0 1.6 0.00 0.00 0.10 83 1026.9
20260507080609 -17 206 4.8 6.4 0.00 0.00 0.10 83 1026.7
20260507080109 -17 195 1.6 3.2 0.00 0.00 0.10 82 1026.7
20260507075609 -17 219 0.0 1.6 0.10 0.00 0.10 85 1026.7
20260507075108 -17 220 4.8 8.0 0.10 0.00 0.10 85 1026.7
20260507074608 -17 202 1.6 3.2 0.10 0.00 0.10 88 1026.5
20260507074109 -17 194 1.6 3.2 0.10 0.00 0.10 88 1026.7
20260507073608 -17 186 0.0 1.6 0.08 0.00 0.08 88 1026.7
20260507073108 -17 191 0.0 1.6 0.08 0.00 0.08 86 1026.7
20260507072608 -17 201 0.0 1.6 0.08 0.00 0.08 85 1026.5
20260507072109 -17 221 1.6 3.2 0.08 0.00 0.08 85 1026.7
20260507071610 -17 192 0.0 0.0 0.00 0.00 0.00 80 1026.5
20260507071109 -17 203 0.0 1.6 0.00 0.00 0.00 77 1026.5
20260507070608 -17 200 0.0 1.6 0.00 0.00 0.00 75 1026.5
20260507070108 -17 197 0.0 0.0 0.00 0.00 0.00 78 1026.5
20260507065609 -17 203 0.0 0.0 0.00 0.00 0.00 76 1026.4
20260507065109 -17 257 0.0 3.2 0.00 0.00 0.00 82 1026.4
20260507064609 -17 200 0.0 1.6 0.00 0.00 0.00 84 1026.2
20260507064108 -17 198 0.0 1.6 0.00 0.00 0.00 84 1026.2
20260507063609 -17 210 1.6 3.2 0.00 0.00 0.00 84 1026.0
20260507063109 -17 227 0.0 1.6 0.00 0.00 0.00 84 1026.2
20260507062609 -17 184 0.0 0.0 0.00 0.00 0.00 83 1026.0
20260507062108 -17 204 0.0 0.0 0.00 0.00 0.00 83 1026.0
20260507061608 -17 197 0.0 0.0 0.00 0.00 0.00 83 1026.0
20260507061109 -17 192 0.0 0.0 0.00 0.00 0.00 83 1026.2
20260507060609 -17 200 0.0 0.0 0.00 0.00 0.00 81 1026.0
20260507060109 -17 196 0.0 1.6 0.00 0.00 0.00 82 1026.0
20260507055609 -17 201 0.0 0.0 0.00 0.00 0.00 81 1026.0
20260507055109 -17 199 1.6 3.2 0.00 0.00 0.00 82 1026.0
20260507054609 -17 213 1.6 3.2 0.00 0.00 0.00 85 1026.0
20260507054108 -17 189 0.0 3.2 0.00 0.00 0.00 86 1026.0
20260507053609 -17 220 0.0 1.6 0.00 0.00 0.00 85 1026.0
20260507053109 -17 209 0.0 1.6 0.00 0.00 0.00 86 1025.7
20260507052608 -17 197 0.0 1.6 0.00 0.00 0.00 87 1025.7
20260507052109 -17 210 1.6 3.2 0.00 0.00 0.00 88 1025.7
20260507051609 -17 214 0.0 1.6 0.00 0.00 0.00 88 1025.7
20260507051109 -17 220 1.6 3.2 0.00 0.00 0.00 88 1025.7
20260507050608 -17 202 0.0 1.6 0.00 0.00 0.00 89 1025.5
20260507050108 -17 197 1.6 1.6 0.00 0.00 0.00 88 1025.5
20260507045609 -17 202 0.0 1.6 0.00 0.00 0.00 88 1025.4
20260507045108 -17 217 0.0 1.6 0.00 0.00 0.00 88 1025.4
20260507044608 -17 209 0.0 1.6 0.00 0.00 0.00 89 1025.4
20260507044108 -17 197 0.0 1.6 0.00 0.00 0.00 89 1025.5
20260507043608 -17 199 1.6 3.2 0.00 0.00 0.00 90 1025.5
20260507043109 -17 199 4.8 6.4 0.00 0.00 0.00 89 1025.2
20260507042609 -17 189 3.2 4.8 0.00 0.00 0.00 89 1025.2
20260507042108 -17 211 0.0 1.6 0.00 0.00 0.00 89 1025.2
20260507041609 -17 190 0.0 1.6 0.00 0.00 0.00 88 1025.4
20260507041109 -17 225 1.6 3.2 0.00 0.00 0.00 88 1025.4
20260507040609 -17 199 1.6 3.2 0.00 0.00 0.00 88 1025.2
20260507040109 -17 263 4.8 6.4 0.00 0.00 0.00 88 1025.2
20260507035609 -17 226 3.2 4.8 0.00 0.00 0.00 89 1025.2
20260507035108 -17 228 1.6 3.2 0.00 0.00 0.00 89 1025.4
20260507034608 -17 206 0.0 1.6 0.00 0.00 0.00 90 1025.2
20260507034108 -17 220 3.2 4.8 0.00 0.00 0.00 90 1025.2
20260507033609 -17 213 1.6 3.2 0.00 0.00 0.00 90 1025.4
20260507033109 -17 219 1.6 1.6 0.00 0.00 0.00 90 1025.4
20260507032608 -17 237 3.2 4.8 0.00 0.00 0.00 89 1025.2
20260507032109 -17 227 1.6 3.2 0.00 0.00 0.00 90 1025.2
20260507031608 -17 222 3.2 4.8 0.00 0.00 0.00 89 1025.0
20260507031109 -17 204 3.2 4.8 0.00 0.00 0.00 89 1025.0
20260507030609 -17 222 3.2 6.4 0.00 0.00 0.00 90 1025.2
20260507030108 -17 227 4.8 6.4 0.00 0.00 0.00 91 1025.2
20260507025609 -17 214 3.2 4.8 0.00 0.00 0.00 91 1025.2
20260507025109 -17 209 0.0 1.6 0.00 0.00 0.00 90 1025.0
20260507024608 -17 210 4.8 8.0 0.00 0.00 0.00 90 1025.2
20260507024108 -17 203 1.6 3.2 0.00 0.00 0.00 89 1025.2
20260507023608 -17 195 1.6 3.2 0.00 0.00 0.00 89 1025.2
20260507023108 -17 211 3.2 4.8 0.00 0.00 0.00 89 1025.2
20260507022608 -17 242 3.2 4.8 0.00 0.00 0.00 90 1025.2
20260507022108 -17 195 3.2 4.8 0.00 0.00 0.00 90 1025.2
20260507021610 -17 216 3.2 3.2 0.00 0.00 0.00 91 1025.2
20260507021109 -17 222 1.6 3.2 0.00 0.00 0.00 90 1025.2
20260507020610 -17 231 4.8 6.4 0.00 0.00 0.00 90 1025.0
20260507020109 -17 216 0.0 1.6 0.00 0.00 0.00 90 1025.2
20260507015609 -17 212 1.6 1.6 0.00 0.00 0.00 89 1025.0
20260507015109 -17 204 1.6 3.2 0.00 0.00 0.00 90 1025.2
20260507014609 -17 230 1.6 4.8 0.00 0.00 0.00 89 1025.0
20260507014108 -17 198 3.2 4.8 0.00 0.00 0.00 90 1025.0
20260507013608 -17 205 1.6 3.2 0.00 0.00 0.00 90 1025.2
20260507012608 -17 228 1.6 1.6 0.00 0.00 0.00 91 1025.2
20260507012109 -17 200 0.0 1.6 0.00 0.00 0.00 90 1025.5
20260507011608 -17 257 4.8 6.4 0.00 0.00 0.00 90 1025.2
20260507011109 -17 229 1.6 3.2 0.00 0.00 0.00 90 1025.2
20260507010609 -17 213 1.6 3.2 0.00 0.00 0.00 89 1025.2
20260507010108 -17 200 1.6 3.2 0.00 0.00 0.00 90 1025.2
20260507005608 -17 245 4.8 6.4 0.00 0.00 0.00 90 1025.2
20260507005108 -17 236 3.2 4.8 0.00 0.00 0.00 90 1025.2
20260507004609 -17 250 3.2 3.2 0.00 0.00 0.00 90 1025.2
20260507004109 -17 207 3.2 3.2 0.00 0.00 0.00 90 1025.2
20260507003608 -17 218 3.2 6.4 0.00 0.00 0.00 90 1025.4
20260507003108 -17 216 1.6 3.2 0.00 0.00 0.00 89 1025.4
20260507002608 -17 197 3.2 6.4 0.00 0.00 0.00 89 1025.2
20260507002109 -17 216 3.2 4.8 0.00 0.00 0.00 89 1025.2
20260507001608 -17 248 4.8 6.4 0.00 0.00 0.00 89 1025.2
20260507001108 -17 207 1.6 3.2 0.00 0.00 0.00 89 1025.2
20260507000608 -17 209 0.0 1.6 0.00 0.00 0.00 89 1025.2
20260507000109 -17 220 3.2 6.4 0.00 0.00 0.00 88 1025.2
20260506235608 -17 203 1.6 3.2 0.00 0.00 0.00 89 1025.2
20260506235108 -17 232 3.2 4.8 0.00 0.00 0.00 89 1025.4
20260506234609 -17 239 3.2 3.2 0.00 0.00 0.00 89 1025.4
20260506234108 -17 212 1.6 3.2 0.00 0.00 0.00 89 1025.4
20260506233608 -17 255 1.6 3.2 0.00 0.00 0.00 89 1025.5
20260506233109 -17 206 0.0 1.6 0.00 0.00 0.00 90 1025.5
20260506232610 -17 199 0.0 1.6 0.00 0.00 0.00 89 1025.5
20260506232108 -17 214 1.6 3.2 0.00 0.00 0.00 90 1025.4
20260506231609 -17 209 3.2 4.8 0.00 0.00 0.00 89 1025.4
20260506231109 -17 196 1.6 3.2 0.00 0.00 0.00 90 1025.5
20260506230609 -17 246 3.2 4.8 0.00 0.00 0.00 90 1025.5
20260506230109 -17 267 3.2 6.4 0.00 0.00 0.00 90 1025.5
20260506225609 -17 194 0.0 0.0 0.00 0.00 0.00 90 1025.5
20260506225110 -17 235 3.2 4.8 0.00 0.00 0.00 90 1025.5